Location: Gad�tanya
(48.0500°N, 20.8500°E)
Time: 11:44:31
(UTC+00:00)

Helios 1A - Pass Details

Date: 05 July 2020
Orbit: 587 x 600 km, 98.2° (Epoch: 11 August)

Event Time Altitude Azimuth Distance (km) Brightness Sun altitude
Exits shadow 23:24:49 24° 248° (WSW) 1,242 4.3 -18.6°
Maximum altitude 23:25:33 25° 265° (W) 1,202 4.4 -18.6°
Drops below altitude 10° 23:29:01 10° 322° (NW) 1,923 6.1 -18.5°
Sets 23:31:30 0° 336° (NNW) 2,831 7.3 -18.4°
